Location: Christchurch
(43.5330°S, 172.6330°E)
Time: 03:11:21
(UTC+12:00)

Cosmos 2315 Rocket - Pass Details

Date: 24 January 2019
Orbit: 966 x 1002 km, 82.9° (Epoch: 17 April)

Event Time Altitude Azimuth Distance (km) Brightness Sun altitude
Rises 21:55:21 0° 188° (S) 3,747 7.8 -8.7°
Reaches altitude 10° 21:57:55 10° 186° (S) 2,787 7.1 -9.0°
Maximum altitude 22:04:20 82° 98° (E) 1,009 4.0 -9.9°
Drops below altitude 10° 22:10:37 10° 10° (N) 2,728 5.9 -10.8°
Enters shadow 22:11:56 - 9° (N) 3,222 6.3 -11.0°
